Location: Los Ranchitos
(37.9930°N, 122.5425°W)
Time: 02:30:36
(UTC+00:00)

Resurs 01 Rocket - Pass Details

Date: 21 September 2020
Orbit: 633 x 645 km, 98.0° (Epoch: 27 October)

Event Time Altitude Azimuth Distance (km) Brightness Sun altitude
Exits shadow 04:14:21 20° 23° (NNE) 1,484 3.5 -24.9°
Drops below altitude 10° 04:16:03 10° 8° (N) 2,048 4.4 -25.2°
Sets 04:18:26 0° 359° (N) 2,961 5.4 -25.6°
